owner,sensor,date,latitude,longitude,vertical_datum,sea_water_practical_salinity,qcFlag 
NERRS,ioos:station:NOAA.NERRS:apaebwq:1,2015-12-01T00:45:00Z,29.7858,-84.8752,2.29,19.5,1111122 
NERRS,ioos:station:NOAA.NERRS:apaebwq:1,2015-12-01T01:45:00Z,29.7858,-84.8752,2.26,19.3,1111122 
NERRS,ioos:station:NOAA.NERRS:apaebwq:1,2015-12-01T02:45:00Z,29.7858,-84.8752,2.2,19.3,1111122 
NERRS,ioos:station:NOAA.NERRS:apaebwq:1,2015-12-01T04:45:00Z,29.7858,-84.8752,2.14,19.3,1111122 
NERRS,ioos:station:NOAA.NERRS:apaebwq:1,2015-12-01T05:45:00Z,29.7858,-84.8752,2.11,19.3,1111122 
NERRS,ioos:station:NOAA.NERRS:apaebwq:1,2015-12-01T06:45:00Z,29.7858,-84.8752,2.11,19.3,1111122 
NERRS,ioos:station:NOAA.NERRS:apaebwq:1,2015-12-01T07:45:00Z,29.7858,-84.8752,2.15,19.2,1111122 
NERRS,ioos:station:NOAA.NERRS:apaebwq:1,2015-12-01T08:45:00Z,29.7858,-84.8752,2.21,19.1,1111122 
NERRS,ioos:station:NOAA.NERRS:apaebwq:1,2015-12-01T09:45:00Z,29.7858,-84.8752,2.27,19.2,1111122 
NERRS,ioos:station:NOAA.NERRS:apaebwq:1,2015-12-01T10:45:00Z,29.7858,-84.8752,2.26,19.3,1111122 
NERRS,ioos:station:NOAA.NERRS:apaebwq:1,2015-12-01T11:45:00Z,29.7858,-84.8752,2.27,19.4,1111122 
NERRS,ioos:station:NOAA.NERRS:apaebwq:1,2015-12-01T12:45:00Z,29.7858,-84.8752,2.21,19.0,1111122 
NERRS,ioos:station:NOAA.NERRS:apaebwq:1,2015-12-01T13:45:00Z,29.7858,-84.8752,2.11,19.2,1111122 
NERRS,ioos:station:NOAA.NERRS:apaebwq:1,2015-12-01T15:45:00Z,29.7858,-84.8752,1.92,18.9,1111122 
NERRS,ioos:station:NOAA.NERRS:apaebwq:1,2015-12-01T16:45:00Z,29.7858,-84.8752,1.84,18.8,1111122 
NERRS,ioos:station:NOAA.NERRS:apaebwq:1,2015-12-01T17:45:00Z,29.7858,-84.8752,1.76,18.8,1111122 
NERRS,ioos:station:NOAA.NERRS:apaebwq:1,2015-12-01T18:45:00Z,29.7858,-84.8752,1.73,18.8,1111122 
NERRS,ioos:station:NOAA.NERRS:apaebwq:1,2015-12-01T19:45:00Z,29.7858,-84.8752,1.78,18.8,1111122 
NERRS,ioos:station:NOAA.NERRS:apaebwq:1,2015-12-01T20:45:00Z,29.7858,-84.8752,1.9,18.8,1111122 
NERRS,ioos:station:NOAA.NERRS:apaebwq:1,2015-12-01T21:45:00Z,29.7858,-84.8752,2.03,18.6,1111122 
NERRS,ioos:station:NOAA.NERRS:apaebwq:1,2015-12-01T22:45:00Z,29.7858,-84.8752,2.15,19.0,1111122 
NERRS,ioos:station:NOAA.NERRS:apaebwq:1,2015-12-01T23:45:00Z,29.7858,-84.8752,2.24,19.7,1111122 
NERRS,ioos:station:NOAA.NERRS:apaebwq:1,2015-12-02T00:45:00Z,29.7858,-84.8752,2.29,19.8,1111122 
NERRS,ioos:station:NOAA.NERRS:apaebwq:1,2015-12-02T01:45:00Z,29.7858,-84.8752,2.3,19.7,1111122 
NERRS,ioos:station:NOAA.NERRS:apaebwq:1,2015-12-02T02:45:00Z,29.7858,-84.8752,2.26,19.6,1111122 
NERRS,ioos:station:NOAA.NERRS:apaebwq:1,2015-12-02T03:45:00Z,29.7858,-84.8752,2.19,19.6,1111122 
NERRS,ioos:station:NOAA.NERRS:apaebwq:1,2015-12-02T05:45:00Z,29.7858,-84.8752,2.13,19.5,1111122 
NERRS,ioos:station:NOAA.NERRS:apaebwq:1,2015-12-02T06:45:00Z,29.7858,-84.8752,2.09,19.5,1111122 
NERRS,ioos:station:NOAA.NERRS:apaebwq:1,2015-12-02T07:45:00Z,29.7858,-84.8752,2.08,19.7,1111122 
NERRS,ioos:station:NOAA.NERRS:apaebwq:1,2015-12-02T08:45:00Z,29.7858,-84.8752,2.1,19.2,1111122 
NERRS,ioos:station:NOAA.NERRS:apaebwq:1,2015-12-02T10:45:00Z,29.7858,-84.8752,2.23,20.3,1111122 
NERRS,ioos:station:NOAA.NERRS:apaebwq:1,2015-12-02T11:45:00Z,29.7858,-84.8752,2.25,20.3,1111122 
NERRS,ioos:station:NOAA.NERRS:apaebwq:1,2015-12-02T12:45:00Z,29.7858,-84.8752,2.25,20.0,1111122 
NERRS,ioos:station:NOAA.NERRS:apaebwq:1,2015-12-02T13:45:00Z,29.7858,-84.8752,2.22,19.1,1111122 
NERRS,ioos:station:NOAA.NERRS:apaebwq:1,2015-12-02T14:45:00Z,29.7858,-84.8752,2.2,18.7,1111122 
NERRS,ioos:station:NOAA.NERRS:apaebwq:1,2015-12-02T16:45:00Z,29.7858,-84.8752,1.95,18.0,1111122 
NERRS,ioos:station:NOAA.NERRS:apaebwq:1,2015-12-02T17:45:00Z,29.7858,-84.8752,1.87,18.5,1111122 
NERRS,ioos:station:NOAA.NERRS:apaebwq:1,2015-12-02T18:45:00Z,29.7858,-84.8752,1.81,18.8,1111122 
NERRS,ioos:station:NOAA.NERRS:apaebwq:1,2015-12-02T19:45:00Z,29.7858,-84.8752,1.79,18.9,1111122 
NERRS,ioos:station:NOAA.NERRS:apaebwq:1,2015-12-02T20:45:00Z,29.7858,-84.8752,1.87,19.0,1111122 
NERRS,ioos:station:NOAA.NERRS:apaebwq:1,2015-12-02T22:45:00Z,29.7858,-84.8752,2.05,19.0,1111122 
NERRS,ioos:station:NOAA.NERRS:apaebwq:1,2015-12-02T23:45:00Z,29.7858,-84.8752,2.14,18.9,1111122 
NERRS,ioos:station:NOAA.NERRS:apaebwq:1,2015-12-03T00:45:00Z,29.7858,-84.8752,2.19,18.9,1111122 
NERRS,ioos:station:NOAA.NERRS:apaebwq:1,2015-12-03T01:45:00Z,29.7858,-84.8752,2.26,18.9,1111122 
NERRS,ioos:station:NOAA.NERRS:apaebwq:1,2015-12-03T02:45:00Z,29.7858,-84.8752,2.23,18.9,1111122 
NERRS,ioos:station:NOAA.NERRS:apaebwq:1,2015-12-03T04:45:00Z,29.7858,-84.8752,2.07,18.9,1111122 
NERRS,ioos:station:NOAA.NERRS:apaebwq:1,2015-12-03T06:45:00Z,29.7858,-84.8752,1.97,18.9,1111122 
NERRS,ioos:station:NOAA.NERRS:apaebwq:1,2015-12-03T07:45:00Z,29.7858,-84.8752,1.93,19.0,1111122 
NERRS,ioos:station:NOAA.NERRS:apaebwq:1,2015-12-03T08:45:00Z,29.7858,-84.8752,1.89,19.1,1111122 
NERRS,ioos:station:NOAA.NERRS:apaebwq:1,2015-12-03T09:45:00Z,29.7858,-84.8752,1.88,20.6,1111122 
NERRS,ioos:station:NOAA.NERRS:apaebwq:1,2015-12-03T10:45:00Z,29.7858,-84.8752,1.88,21.7,1111122 
NERRS,ioos:station:NOAA.NERRS:apaebwq:1,2015-12-03T11:45:00Z,29.7858,-84.8752,1.9,22.1,1111122 
NERRS,ioos:station:NOAA.NERRS:apaebwq:1,2015-12-03T12:45:00Z,29.7858,-84.8752,1.96,22.4,1111122 
NERRS,ioos:station:NOAA.NERRS:apaebwq:1,2015-12-03T13:45:00Z,29.7858,-84.8752,1.98,22.4,1111122 
NERRS,ioos:station:NOAA.NERRS:apaebwq:1,2015-12-03T14:45:00Z,29.7858,-84.8752,1.97,22.0,1111122 
NERRS,ioos:station:NOAA.NERRS:apaebwq:1,2015-12-03T15:45:00Z,29.7858,-84.8752,1.92,21.9,1111122 
NERRS,ioos:station:NOAA.NERRS:apaebwq:1,2015-12-03T16:45:00Z,29.7858,-84.8752,1.86,21.9,1111122 
NERRS,ioos:station:NOAA.NERRS:apaebwq:1,2015-12-03T17:45:00Z,29.7858,-84.8752,1.8,21.8,1111122 
NERRS,ioos:station:NOAA.NERRS:apaebwq:1,2015-12-03T18:45:00Z,29.7858,-84.8752,1.76,21.7,1111122 
NERRS,ioos:station:NOAA.NERRS:apaebwq:1,2015-12-03T20:45:00Z,29.7858,-84.8752,1.73,22.3,1111122 
NERRS,ioos:station:NOAA.NERRS:apaebwq:1,2015-12-03T21:45:00Z,29.7858,-84.8752,1.79,22.5,1111122 
NERRS,ioos:station:NOAA.NERRS:apaebwq:1,2015-12-03T22:45:00Z,29.7858,-84.8752,1.88,21.7,1111122 
NERRS,ioos:station:NOAA.NERRS:apaebwq:1,2015-12-03T23:45:00Z,29.7858,-84.8752,1.94,22.4,1111122 
NERRS,ioos:station:NOAA.NERRS:apaebwq:1,2015-12-04T00:45:00Z,29.7858,-84.8752,1.98,22.5,1111122 
NERRS,ioos:station:NOAA.NERRS:apaebwq:1,2015-12-04T01:45:00Z,29.7858,-84.8752,1.98,22.3,1111122 
NERRS,ioos:station:NOAA.NERRS:apaebwq:1,2015-12-04T02:45:00Z,29.7858,-84.8752,1.95,23.6,1111122 
NERRS,ioos:station:NOAA.NERRS:apaebwq:1,2015-12-04T03:45:00Z,29.7858,-84.8752,1.9,23.8,1111122 
NERRS,ioos:station:NOAA.NERRS:apaebwq:1,2015-12-04T04:45:00Z,29.7858,-84.8752,1.87,24.1,1111122 
NERRS,ioos:station:NOAA.NERRS:apaebwq:1,2015-12-04T05:45:00Z,29.7858,-84.8752,1.8,24.1,1111122 
NERRS,ioos:station:NOAA.NERRS:apaebwq:1,2015-12-04T06:45:00Z,29.7858,-84.8752,1.77,24.0,1111122 
NERRS,ioos:station:NOAA.NERRS:apaebwq:1,2015-12-04T07:45:00Z,29.7858,-84.8752,1.74,24.4,1111122 
NERRS,ioos:station:NOAA.NERRS:apaebwq:1,2015-12-04T08:45:00Z,29.7858,-84.8752,1.7,24.5,1111122 
NERRS,ioos:station:NOAA.NERRS:apaebwq:1,2015-12-04T09:45:00Z,29.7858,-84.8752,0.0,24.4,1111122 
NERRS,ioos:station:NOAA.NERRS:apaebwq:1,2015-12-04T10:45:00Z,29.7858,-84.8752,1.75,24.2,1111122 
NERRS,ioos:station:NOAA.NERRS:apaebwq:1,2015-12-04T11:45:00Z,29.7858,-84.8752,1.77,24.2,1111122 
NERRS,ioos:station:NOAA.NERRS:apaebwq:1,2015-12-04T12:45:00Z,29.7858,-84.8752,1.79,23.3,1111122 
NERRS,ioos:station:NOAA.NERRS:apaebwq:1,2015-12-04T13:45:00Z,29.7858,-84.8752,1.83,22.7,1111122 
NERRS,ioos:station:NOAA.NERRS:apaebwq:1,2015-12-04T14:45:00Z,29.7858,-84.8752,1.86,22.5,1111122 
NERRS,ioos:station:NOAA.NERRS:apaebwq:1,2015-12-04T15:45:00Z,29.7858,-84.8752,1.88,22.3,1111122 
NERRS,ioos:station:NOAA.NERRS:apaebwq:1,2015-12-04T16:45:00Z,29.7858,-84.8752,1.86,21.6,1111122 
NERRS,ioos:station:NOAA.NERRS:apaebwq:1,2015-12-04T17:45:00Z,29.7858,-84.8752,1.83,21.5,1111122 
NERRS,ioos:station:NOAA.NERRS:apaebwq:1,2015-12-05T00:45:00Z,29.7858,-84.8752,1.92,24.1,1111122 
NERRS,ioos:station:NOAA.NERRS:apaebwq:1,2015-12-05T06:45:00Z,29.7858,-84.8752,1.86,23.4,1111122 
NERRS,ioos:station:NOAA.NERRS:apaebwq:1,2015-12-05T18:45:00Z,29.7858,-84.8752,1.76,18.9,1111122 
NERRS,ioos:station:NOAA.NERRS:apaebwq:1,2015-12-06T00:45:00Z,29.7858,-84.8752,1.88,23.3,1111122 
NERRS,ioos:station:NOAA.NERRS:apaebwq:1,2015-12-06T06:45:00Z,29.7858,-84.8752,1.92,22.3,1111122 
NERRS,ioos:station:NOAA.NERRS:apaebwq:1,2015-12-06T08:45:00Z,29.7858,-84.8752,1.75,25.4,1111122 
NERRS,ioos:station:NOAA.NERRS:apaebwq:1,2015-12-06T16:45:00Z,29.7858,-84.8752,1.97,25.6,1111122 
NERRS,ioos:station:NOAA.NERRS:apaebwq:1,2015-12-06T17:45:00Z,29.7858,-84.8752,1.97,25.9,1111122 
NERRS,ioos:station:NOAA.NERRS:apaebwq:1,2015-12-06T18:45:00Z,29.7858,-84.8752,1.95,26.2,1111122 
NERRS,ioos:station:NOAA.NERRS:apaebwq:1,2015-12-06T19:45:00Z,29.7858,-84.8752,1.93,26.5,1111122 
NERRS,ioos:station:NOAA.NERRS:apaebwq:1,2015-12-06T20:45:00Z,29.7858,-84.8752,1.9,26.4,1111122 
NERRS,ioos:station:NOAA.NERRS:apaebwq:1,2015-12-06T21:45:00Z,29.7858,-84.8752,1.89,26.5,1111122 
NERRS,ioos:station:NOAA.NERRS:apaebwq:1,2015-12-06T22:45:00Z,29.7858,-84.8752,1.92,26.1,1111122 
NERRS,ioos:station:NOAA.NERRS:apaebwq:1,2015-12-06T23:45:00Z,29.7858,-84.8752,1.97,26.0,1111122 
NERRS,ioos:station:NOAA.NERRS:apaebwq:1,2015-12-07T01:45:00Z,29.7858,-84.8752,2.0,26.0,1111122 
NERRS,ioos:station:NOAA.NERRS:apaebwq:1,2015-12-07T02:45:00Z,29.7858,-84.8752,2.05,25.8,1111122 
NERRS,ioos:station:NOAA.NERRS:apaebwq:1,2015-12-07T05:45:00Z,29.7858,-84.8752,2.04,25.7,1111122 
NERRS,ioos:station:NOAA.NERRS:apaebwq:1,2015-12-07T06:45:00Z,29.7858,-84.8752,1.96,25.7,1111122 
NERRS,ioos:station:NOAA.NERRS:apaebwq:1,2015-12-07T08:45:00Z,29.7858,-84.8752,1.79,25.7,1111122 
NERRS,ioos:station:NOAA.NERRS:apaebwq:1,2015-12-07T09:45:00Z,29.7858,-84.8752,1.7,25.8,1111122 
NERRS,ioos:station:NOAA.NERRS:apaebwq:1,2015-12-07T13:45:00Z,29.7858,-84.8752,1.69,26.8,1111122 
NERRS,ioos:station:NOAA.NERRS:apaebwq:1,2015-12-07T14:45:00Z,29.7858,-84.8752,1.8,26.7,1111122 
NERRS,ioos:station:NOAA.NERRS:apaebwq:1,2015-12-07T15:45:00Z,29.7858,-84.8752,1.92,26.2,1111122 
NERRS,ioos:station:NOAA.NERRS:apaebwq:1,2015-12-07T16:45:00Z,29.7858,-84.8752,2.0,25.8,1111122 
NERRS,ioos:station:NOAA.NERRS:apaebwq:1,2015-12-07T18:45:00Z,29.7858,-84.8752,2.04,26.6,1111122 
NERRS,ioos:station:NOAA.NERRS:apaebwq:1,2015-12-07T21:45:00Z,29.7858,-84.8752,1.96,26.5,1111122 
NERRS,ioos:station:NOAA.NERRS:apaebwq:1,2015-12-07T22:45:00Z,29.7858,-84.8752,1.96,26.4,1111122 
NERRS,ioos:station:NOAA.NERRS:apaebwq:1,2015-12-07T23:45:00Z,29.7858,-84.8752,1.94,26.3,1111122 
NERRS,ioos:station:NOAA.NERRS:apaebwq:1,2015-12-08T01:45:00Z,29.7858,-84.8752,1.95,26.5,1111122 
NERRS,ioos:station:NOAA.NERRS:apaebwq:1,2015-12-08T04:45:00Z,29.7858,-84.8752,2.13,26.0,1111122 
NERRS,ioos:station:NOAA.NERRS:apaebwq:1,2015-12-08T07:45:00Z,29.7858,-84.8752,1.95,26.4,1111122 
NERRS,ioos:station:NOAA.NERRS:apaebwq:1,2015-12-08T08:45:00Z,29.7858,-84.8752,1.86,26.1,1111122 
NERRS,ioos:station:NOAA.NERRS:apaebwq:1,2015-12-08T09:45:00Z,29.7858,-84.8752,1.76,26.0,1111122 
NERRS,ioos:station:NOAA.NERRS:apaebwq:1,2015-12-08T10:45:00Z,29.7858,-84.8752,1.67,25.8,1111122 
NERRS,ioos:station:NOAA.NERRS:apaebwq:1,2015-12-08T11:45:00Z,29.7858,-84.8752,1.6,26.1,1111122 
NERRS,ioos:station:NOAA.NERRS:apaebwq:1,2015-12-08T12:45:00Z,29.7858,-84.8752,1.56,26.2,1111122 
NERRS,ioos:station:NOAA.NERRS:apaebwq:1,2015-12-08T15:45:00Z,29.7858,-84.8752,1.72,25.4,1111122 
NERRS,ioos:station:NOAA.NERRS:apaebwq:1,2015-12-08T16:45:00Z,29.7858,-84.8752,1.84,24.0,1111122 
NERRS,ioos:station:NOAA.NERRS:apaebwq:1,2015-12-08T17:45:00Z,29.7858,-84.8752,1.94,23.5,1111122 
NERRS,ioos:station:NOAA.NERRS:apaebwq:1,2015-12-08T21:45:00Z,29.7858,-84.8752,1.99,24.8,1111122 
NERRS,ioos:station:NOAA.NERRS:apaebwq:1,2015-12-08T22:45:00Z,29.7858,-84.8752,1.94,24.8,1111122 
NERRS,ioos:station:NOAA.NERRS:apaebwq:1,2015-12-08T23:45:00Z,29.7858,-84.8752,1.91,24.8,1111122 
NERRS,ioos:station:NOAA.NERRS:apaebwq:1,2015-12-09T00:45:00Z,29.7858,-84.8752,1.93,24.8,1111122 
NERRS,ioos:station:NOAA.NERRS:apaebwq:1,2015-12-09T01:45:00Z,29.7858,-84.8752,1.96,24.7,1111122 
NERRS,ioos:station:NOAA.NERRS:apaebwq:1,2015-12-09T03:45:00Z,29.7858,-84.8752,2.07,24.7,1111122 
NERRS,ioos:station:NOAA.NERRS:apaebwq:1,2015-12-09T04:45:00Z,29.7858,-84.8752,2.13,24.7,1111122 
NERRS,ioos:station:NOAA.NERRS:apaebwq:1,2015-12-09T05:45:00Z,29.7858,-84.8752,2.18,24.7,1111122 
NERRS,ioos:station:NOAA.NERRS:apaebwq:1,2015-12-09T06:45:00Z,29.7858,-84.8752,2.15,24.6,1111122 
NERRS,ioos:station:NOAA.NERRS:apaebwq:1,2015-12-09T07:45:00Z,29.7858,-84.8752,2.07,24.6,1111122 
NERRS,ioos:station:NOAA.NERRS:apaebwq:1,2015-12-09T08:45:00Z,29.7858,-84.8752,1.97,24.7,1111122 
NERRS,ioos:station:NOAA.NERRS:apaebwq:1,2015-12-09T09:45:00Z,29.7858,-84.8752,1.87,24.7,1111122 
NERRS,ioos:station:NOAA.NERRS:apaebwq:1,2015-12-09T10:45:00Z,29.7858,-84.8752,1.76,24.6,1111122 
NERRS,ioos:station:NOAA.NERRS:apaebwq:1,2015-12-09T11:45:00Z,29.7858,-84.8752,1.66,24.6,1111122 
NERRS,ioos:station:NOAA.NERRS:apaebwq:1,2015-12-09T15:45:00Z,29.7858,-84.8752,1.67,23.2,1111122 
NERRS,ioos:station:NOAA.NERRS:apaebwq:1,2015-12-09T16:45:00Z,29.7858,-84.8752,1.82,21.6,1111122 
NERRS,ioos:station:NOAA.NERRS:apaebwq:1,2015-12-09T18:45:00Z,29.7858,-84.8752,2.11,21.1,1111122 
NERRS,ioos:station:NOAA.NERRS:apaebwq:1,2015-12-09T19:45:00Z,29.7858,-84.8752,2.16,21.2,1111122 
NERRS,ioos:station:NOAA.NERRS:apaebwq:1,2015-12-09T20:45:00Z,29.7858,-84.8752,2.17,21.0,1111122 
NERRS,ioos:station:NOAA.NERRS:apaebwq:1,2015-12-09T21:45:00Z,29.7858,-84.8752,2.15,22.0,1111122 
NERRS,ioos:station:NOAA.NERRS:apaebwq:1,2015-12-09T22:45:00Z,29.7858,-84.8752,2.12,21.9,1111122 
NERRS,ioos:station:NOAA.NERRS:apaebwq:1,2015-12-09T23:45:00Z,29.7858,-84.8752,2.07,21.6,1111122 
NERRS,ioos:station:NOAA.NERRS:apaebwq:1,2015-12-10T00:45:00Z,29.7858,-84.8752,2.03,21.4,1111122 
NERRS,ioos:station:NOAA.NERRS:apaebwq:1,2015-12-10T02:45:00Z,29.7858,-84.8752,2.05,22.0,1111122 
NERRS,ioos:station:NOAA.NERRS:apaebwq:1,2015-12-10T03:45:00Z,29.7858,-84.8752,2.12,22.0,1111122 
NERRS,ioos:station:NOAA.NERRS:apaebwq:1,2015-12-10T04:45:00Z,29.7858,-84.8752,2.2,21.9,1111122 
NERRS,ioos:station:NOAA.NERRS:apaebwq:1,2015-12-10T05:45:00Z,29.7858,-84.8752,2.24,21.8,1111122 
NERRS,ioos:station:NOAA.NERRS:apaebwq:1,2015-12-10T06:45:00Z,29.7858,-84.8752,2.23,22.0,1111122 
NERRS,ioos:station:NOAA.NERRS:apaebwq:1,2015-12-10T07:45:00Z,29.7858,-84.8752,2.17,22.0,1111122 
NERRS,ioos:station:NOAA.NERRS:apaebwq:1,2015-12-10T08:45:00Z,29.7858,-84.8752,2.07,21.8,1111122 
NERRS,ioos:station:NOAA.NERRS:apaebwq:1,2015-12-10T09:45:00Z,29.7858,-84.8752,1.95,21.5,1111122 
NERRS,ioos:station:NOAA.NERRS:apaebwq:1,2015-12-10T10:45:00Z,29.7858,-84.8752,1.83,21.5,1111122 
NERRS,ioos:station:NOAA.NERRS:apaebwq:1,2015-12-10T11:45:00Z,29.7858,-84.8752,1.72,21.4,1111122 
NERRS,ioos:station:NOAA.NERRS:apaebwq:1,2015-12-10T14:45:00Z,29.7858,-84.8752,1.54,21.4,1111122 
NERRS,ioos:station:NOAA.NERRS:apaebwq:1,2015-12-10T16:45:00Z,29.7858,-84.8752,1.73,21.0,1111122 
NERRS,ioos:station:NOAA.NERRS:apaebwq:1,2015-12-10T17:45:00Z,29.7858,-84.8752,1.91,20.5,1111122 
NERRS,ioos:station:NOAA.NERRS:apaebwq:1,2015-12-10T19:45:00Z,29.7858,-84.8752,2.14,17.6,1111122 
NERRS,ioos:station:NOAA.NERRS:apaebwq:1,2015-12-10T20:45:00Z,29.7858,-84.8752,2.2,20.2,1111122 
NERRS,ioos:station:NOAA.NERRS:apaebwq:1,2015-12-10T21:45:00Z,29.7858,-84.8752,2.22,20.1,1111122 
NERRS,ioos:station:NOAA.NERRS:apaebwq:1,2015-12-10T22:45:00Z,29.7858,-84.8752,2.19,19.9,1111122 
NERRS,ioos:station:NOAA.NERRS:apaebwq:1,2015-12-10T23:45:00Z,29.7858,-84.8752,2.13,19.9,1111122 
NERRS,ioos:station:NOAA.NERRS:apaebwq:1,2015-12-11T01:45:00Z,29.7858,-84.8752,2.06,20.0,1111122 
NERRS,ioos:station:NOAA.NERRS:apaebwq:1,2015-12-11T02:45:00Z,29.7858,-84.8752,2.11,20.0,1111122 
NERRS,ioos:station:NOAA.NERRS:apaebwq:1,2015-12-11T03:45:00Z,29.7858,-84.8752,2.17,20.3,1111122 
NERRS,ioos:station:NOAA.NERRS:apaebwq:1,2015-12-11T04:45:00Z,29.7858,-84.8752,2.23,19.9,1111122 
NERRS,ioos:station:NOAA.NERRS:apaebwq:1,2015-12-11T05:45:00Z,29.7858,-84.8752,2.31,19.8,1111122 
NERRS,ioos:station:NOAA.NERRS:apaebwq:1,2015-12-11T06:45:00Z,29.7858,-84.8752,2.33,20.0,1111122 
NERRS,ioos:station:NOAA.NERRS:apaebwq:1,2015-12-11T07:45:00Z,29.7858,-84.8752,2.31,20.1,1111122 
NERRS,ioos:station:NOAA.NERRS:apaebwq:1,2015-12-11T08:45:00Z,29.7858,-84.8752,2.23,20.2,1111122 
NERRS,ioos:station:NOAA.NERRS:apaebwq:1,2015-12-11T10:45:00Z,29.7858,-84.8752,2.0,19.7,1111122 
NERRS,ioos:station:NOAA.NERRS:apaebwq:1,2015-12-11T11:45:00Z,29.7858,-84.8752,1.88,19.3,1111122 
NERRS,ioos:station:NOAA.NERRS:apaebwq:1,2015-12-11T12:45:00Z,29.7858,-84.8752,1.77,19.2,1111122 
NERRS,ioos:station:NOAA.NERRS:apaebwq:1,2015-12-11T13:45:00Z,29.7858,-84.8752,1.67,18.9,1111122 
NERRS,ioos:station:NOAA.NERRS:apaebwq:1,2015-12-11T16:45:00Z,29.7858,-84.8752,1.67,18.8,1111122 
NERRS,ioos:station:NOAA.NERRS:apaebwq:1,2015-12-11T17:45:00Z,29.7858,-84.8752,1.82,18.4,1111122 
NERRS,ioos:station:NOAA.NERRS:apaebwq:1,2015-12-11T19:45:00Z,29.7858,-84.8752,2.14,17.3,1111122 
NERRS,ioos:station:NOAA.NERRS:apaebwq:1,2015-12-11T20:45:00Z,29.7858,-84.8752,2.23,18.2,1111122 
NERRS,ioos:station:NOAA.NERRS:apaebwq:1,2015-12-11T21:45:00Z,29.7858,-84.8752,2.28,18.1,1111122 
NERRS,ioos:station:NOAA.NERRS:apaebwq:1,2015-12-11T22:45:00Z,29.7858,-84.8752,2.26,17.9,1111122 
NERRS,ioos:station:NOAA.NERRS:apaebwq:1,2015-12-11T23:45:00Z,29.7858,-84.8752,2.2,17.9,1111122 
NERRS,ioos:station:NOAA.NERRS:apaebwq:1,2015-12-12T00:45:00Z,29.7858,-84.8752,2.14,17.8,1111122 
NERRS,ioos:station:NOAA.NERRS:apaebwq:1,2015-12-12T01:45:00Z,29.7858,-84.8752,2.12,17.9,1111122 
NERRS,ioos:station:NOAA.NERRS:apaebwq:1,2015-12-12T02:45:00Z,29.7858,-84.8752,2.12,17.9,1111122 
NERRS,ioos:station:NOAA.NERRS:apaebwq:1,2015-12-12T03:45:00Z,29.7858,-84.8752,2.15,17.9,1111122 
NERRS,ioos:station:NOAA.NERRS:apaebwq:1,2015-12-12T04:45:00Z,29.7858,-84.8752,2.2,17.8,1111122 
NERRS,ioos:station:NOAA.NERRS:apaebwq:1,2015-12-12T05:45:00Z,29.7858,-84.8752,2.3,17.8,1111122 
NERRS,ioos:station:NOAA.NERRS:apaebwq:1,2015-12-12T06:45:00Z,29.7858,-84.8752,2.36,17.8,1111122 
NERRS,ioos:station:NOAA.NERRS:apaebwq:1,2015-12-12T07:45:00Z,29.7858,-84.8752,2.37,17.8,1111122 
NERRS,ioos:station:NOAA.NERRS:apaebwq:1,2015-12-12T08:45:00Z,29.7858,-84.8752,2.31,17.8,1111122 
NERRS,ioos:station:NOAA.NERRS:apaebwq:1,2015-12-12T09:45:00Z,29.7858,-84.8752,2.21,17.7,1111122 
NERRS,ioos:station:NOAA.NERRS:apaebwq:1,2015-12-12T10:45:00Z,29.7858,-84.8752,2.09,17.6,1111122 
NERRS,ioos:station:NOAA.NERRS:apaebwq:1,2015-12-12T11:45:00Z,29.7858,-84.8752,1.96,17.4,1111122 
NERRS,ioos:station:NOAA.NERRS:apaebwq:1,2015-12-12T12:45:00Z,29.7858,-84.8752,1.85,16.9,1111122 
NERRS,ioos:station:NOAA.NERRS:apaebwq:1,2015-12-12T13:45:00Z,29.7858,-84.8752,1.75,16.9,1111122 
NERRS,ioos:station:NOAA.NERRS:apaebwq:1,2015-12-12T15:45:00Z,29.7858,-84.8752,1.6,16.6,1111122 
NERRS,ioos:station:NOAA.NERRS:apaebwq:1,2015-12-12T17:45:00Z,29.7858,-84.8752,1.67,16.6,1111122 
NERRS,ioos:station:NOAA.NERRS:apaebwq:1,2015-12-12T18:45:00Z,29.7858,-84.8752,1.84,16.4,1111122 
NERRS,ioos:station:NOAA.NERRS:apaebwq:1,2015-12-12T20:45:00Z,29.7858,-84.8752,2.14,16.1,1111122 
NERRS,ioos:station:NOAA.NERRS:apaebwq:1,2015-12-12T21:45:00Z,29.7858,-84.8752,2.21,16.0,1111122 
NERRS,ioos:station:NOAA.NERRS:apaebwq:1,2015-12-12T22:45:00Z,29.7858,-84.8752,2.24,16.2,1111122 
NERRS,ioos:station:NOAA.NERRS:apaebwq:1,2015-12-12T23:45:00Z,29.7858,-84.8752,2.21,16.8,1111122 
NERRS,ioos:station:NOAA.NERRS:apaebwq:1,2015-12-13T00:45:00Z,29.7858,-84.8752,2.15,16.7,1111122 
NERRS,ioos:station:NOAA.NERRS:apaebwq:1,2015-12-13T01:45:00Z,29.7858,-84.8752,2.11,17.0,1111122 
NERRS,ioos:station:NOAA.NERRS:apaebwq:1,2015-12-13T03:45:00Z,29.7858,-84.8752,2.13,16.9,1111122 
NERRS,ioos:station:NOAA.NERRS:apaebwq:1,2015-12-13T04:45:00Z,29.7858,-84.8752,2.16,16.8,1111122 
NERRS,ioos:station:NOAA.NERRS:apaebwq:1,2015-12-13T05:45:00Z,29.7858,-84.8752,2.23,16.3,1111122 
NERRS,ioos:station:NOAA.NERRS:apaebwq:1,2015-12-13T06:45:00Z,29.7858,-84.8752,2.33,16.2,1111122 
NERRS,ioos:station:NOAA.NERRS:apaebwq:1,2015-12-13T07:45:00Z,29.7858,-84.8752,2.39,16.1,1111122 
NERRS,ioos:station:NOAA.NERRS:apaebwq:1,2015-12-13T08:45:00Z,29.7858,-84.8752,2.39,16.4,1111122 
NERRS,ioos:station:NOAA.NERRS:apaebwq:1,2015-12-13T09:45:00Z,29.7858,-84.8752,2.31,16.1,1111122 
NERRS,ioos:station:NOAA.NERRS:apaebwq:1,2015-12-13T10:45:00Z,29.7858,-84.8752,2.22,16.6,1111122 
NERRS,ioos:station:NOAA.NERRS:apaebwq:1,2015-12-13T11:45:00Z,29.7858,-84.8752,2.1,15.6,1111122 
NERRS,ioos:station:NOAA.NERRS:apaebwq:1,2015-12-13T12:45:00Z,29.7858,-84.8752,1.97,16.3,1111122 
NERRS,ioos:station:NOAA.NERRS:apaebwq:1,2015-12-13T13:45:00Z,29.7858,-84.8752,1.86,16.4,1111122 
NERRS,ioos:station:NOAA.NERRS:apaebwq:1,2015-12-13T14:45:00Z,29.7858,-84.8752,1.77,16.6,1111122 
NERRS,ioos:station:NOAA.NERRS:apaebwq:1,2015-12-13T16:45:00Z,29.7858,-84.8752,1.7,16.6,1111122 
NERRS,ioos:station:NOAA.NERRS:apaebwq:1,2015-12-13T17:45:00Z,29.7858,-84.8752,1.75,16.6,1111122 
NERRS,ioos:station:NOAA.NERRS:apaebwq:1,2015-12-13T18:45:00Z,29.7858,-84.8752,1.89,16.6,1111122 
NERRS,ioos:station:NOAA.NERRS:apaebwq:1,2015-12-13T19:45:00Z,29.7858,-84.8752,2.04,16.6,1111122 
NERRS,ioos:station:NOAA.NERRS:apaebwq:1,2015-12-13T20:45:00Z,29.7858,-84.8752,2.16,16.2,1111122 
NERRS,ioos:station:NOAA.NERRS:apaebwq:1,2015-12-13T21:45:00Z,29.7858,-84.8752,2.24,16.1,1111122 
NERRS,ioos:station:NOAA.NERRS:apaebwq:1,2015-12-13T22:45:00Z,29.7858,-84.8752,2.28,16.1,1111122 
NERRS,ioos:station:NOAA.NERRS:apaebwq:1,2015-12-13T23:45:00Z,29.7858,-84.8752,2.29,16.2,1111122 
NERRS,ioos:station:NOAA.NERRS:apaebwq:1,2015-12-14T00:45:00Z,29.7858,-84.8752,2.25,16.4,1111122 
NERRS,ioos:station:NOAA.NERRS:apaebwq:1,2015-12-14T01:45:00Z,29.7858,-84.8752,2.2,16.4,1111122 
NERRS,ioos:station:NOAA.NERRS:apaebwq:1,2015-12-14T02:45:00Z,29.7858,-84.8752,2.19,16.3,1111122 
NERRS,ioos:station:NOAA.NERRS:apaebwq:1,2015-12-14T03:45:00Z,29.7858,-84.8752,2.19,16.3,1111122 
NERRS,ioos:station:NOAA.NERRS:apaebwq:1,2015-12-14T04:45:00Z,29.7858,-84.8752,2.19,16.2,1111122 
NERRS,ioos:station:NOAA.NERRS:apaebwq:1,2015-12-14T05:45:00Z,29.7858,-84.8752,2.27,15.8,1111122 
NERRS,ioos:station:NOAA.NERRS:apaebwq:1,2015-12-14T06:45:00Z,29.7858,-84.8752,2.38,15.9,1111122 
NERRS,ioos:station:NOAA.NERRS:apaebwq:1,2015-12-14T09:45:00Z,29.7858,-84.8752,2.41,16.9,1111122 
NERRS,ioos:station:NOAA.NERRS:apaebwq:1,2015-12-14T10:45:00Z,29.7858,-84.8752,2.33,16.8,1111122 
NERRS,ioos:station:NOAA.NERRS:apaebwq:1,2015-12-14T11:45:00Z,29.7858,-84.8752,2.23,16.4,1111122 
NERRS,ioos:station:NOAA.NERRS:apaebwq:1,2015-12-14T12:45:00Z,29.7858,-84.8752,2.11,16.3,1111122 
NERRS,ioos:station:NOAA.NERRS:apaebwq:1,2015-12-14T14:45:00Z,29.7858,-84.8752,1.89,16.4,1111122 
NERRS,ioos:station:NOAA.NERRS:apaebwq:1,2015-12-14T15:45:00Z,29.7858,-84.8752,1.83,16.6,1111122 
NERRS,ioos:station:NOAA.NERRS:apaebwq:1,2015-12-14T16:45:00Z,29.7858,-84.8752,1.79,16.6,1111122 
NERRS,ioos:station:NOAA.NERRS:apaebwq:1,2015-12-14T17:45:00Z,29.7858,-84.8752,-99.0,16.7,1111122 
NERRS,ioos:station:NOAA.NERRS:apaebwq:1,2015-12-14T20:45:00Z,29.7858,-84.8752,2.09,16.3,1111122 
NERRS,ioos:station:NOAA.NERRS:apaebwq:1,2015-12-14T21:45:00Z,29.7858,-84.8752,2.25,15.8,1111122 
NERRS,ioos:station:NOAA.NERRS:apaebwq:1,2015-12-14T22:45:00Z,29.7858,-84.8752,2.32,16.1,1111122 
NERRS,ioos:station:NOAA.NERRS:apaebwq:1,2015-12-14T23:45:00Z,29.7858,-84.8752,2.32,15.9,1111122 
NERRS,ioos:station:NOAA.NERRS:apaebwq:1,2015-12-15T00:45:00Z,29.7858,-84.8752,2.27,15.8,1111122 
NERRS,ioos:station:NOAA.NERRS:apaebwq:1,2015-12-15T01:45:00Z,29.7858,-84.8752,2.22,15.7,1111122 
NERRS,ioos:station:NOAA.NERRS:apaebwq:1,2015-12-15T02:45:00Z,29.7858,-84.8752,2.18,15.6,1111122 
NERRS,ioos:station:NOAA.NERRS:apaebwq:1,2015-12-15T03:45:00Z,29.7858,-84.8752,2.2,15.7,1111122 